Time,TemperatureF,DewpointF,PressureIn,WindDirection,WindDirectionDegrees,WindSpeedMPH,WindSpeedGustMPH,Humidity,HourlyPrecipIn,Conditions,Clouds,dailyrainin,SoftwareType,DateUTC
2013-04-07 00:06:00,48.2,47.1,30.02,SSW,202,8.3,-999.0,96,-99.99,,,0.00,Acu-Link.com,2013-04-07 07:06:00,
2013-04-07 00:21:00,48.0,47.2,30.01,SW,225,10.9,-999.0,97,-99.99,,,0.00,Acu-Link.com,2013-04-07 07:21:00,
2013-04-07 00:37:00,48.0,46.9,30.00,South,180,13.0,-999.0,96,-99.99,,,0.00,Acu-Link.com,2013-04-07 07:37:00,
2013-04-07 00:52:00,48.0,46.6,30.01,WSW,247,6.3,-999.0,95,-99.99,,,0.00,Acu-Link.com,2013-04-07 07:52:00,
2013-04-07 01:07:00,48.0,46.9,30.01,WSW,247,10.4,-999.0,96,-99.99,,,0.00,Acu-Link.com,2013-04-07 08:07:00,
2013-04-07 01:22:00,48.0,47.2,30.01,West,270,9.4,-999.0,97,-99.99,,,0.00,Acu-Link.com,2013-04-07 08:22:00,
2013-04-07 01:38:00,48.0,47.2,30.00,WSW,247,9.4,-999.0,97,-99.99,,,0.00,Acu-Link.com,2013-04-07 08:38:00,
2013-04-07 01:53:00,48.0,47.2,30.01,West,270,5.8,-999.0,97,-99.99,,,0.00,Acu-Link.com,2013-04-07 08:53:00,
2013-04-07 02:08:00,48.0,47.2,30.01,SSW,202,6.8,-999.0,97,-99.99,,,0.00,Acu-Link.com,2013-04-07 09:08:00,
2013-04-07 02:23:00,48.0,46.9,30.00,West,270,4.7,-999.0,96,-99.99,,,0.00,Acu-Link.com,2013-04-07 09:23:00,
2013-04-07 02:38:00,48.0,46.9,30.00,WNW,292,5.8,-999.0,96,-99.99,,,0.00,Acu-Link.com,2013-04-07 09:38:00,
2013-04-07 03:24:00,48.0,47.5,29.98,SW,225,7.3,-999.0,98,-99.99,,,0.00,Acu-Link.com,2013-04-07 10:24:00,
2013-04-07 04:10:00,48.0,47.7,29.97,West,270,5.8,-999.0,99,-99.99,,,0.00,Acu-Link.com,2013-04-07 11:10:00,
2013-04-07 04:25:00,48.0,47.7,29.96,WSW,247,5.8,-999.0,99,-99.99,,,0.00,Acu-Link.com,2013-04-07 11:25:00,
2013-04-07 04:40:00,48.0,47.7,29.97,SSW,202,6.3,-999.0,99,-99.99,,,0.00,Acu-Link.com,2013-04-07 11:40:00,
2013-04-07 05:41:00,48.0,47.7,29.96,WSW,247,2.2,-999.0,99,-99.99,,,0.00,Acu-Link.com,2013-04-07 12:41:00,
2013-04-07 05:56:00,48.0,47.7,29.96,SW,225,0.0,-999.0,99,-99.99,,,0.00,Acu-Link.com,2013-04-07 12:56:00,
2013-04-07 06:11:00,48.0,47.7,29.96,NNE,22,0.0,-999.0,99,-99.99,,,0.00,Acu-Link.com,2013-04-07 13:11:00,
2013-04-07 06:27:00,48.0,47.7,29.96,West,270,0.0,-999.0,99,-99.99,,,0.01,Acu-Link.com,2013-04-07 13:27:00,
2013-04-07 06:42:00,48.0,47.7,29.97,NE,45,0.0,-999.0,99,-99.99,,,0.01,Acu-Link.com,2013-04-07 13:42:00,
2013-04-07 06:57:00,48.0,47.7,29.97,WSW,247,0.0,-999.0,99,-99.99,,,0.02,Acu-Link.com,2013-04-07 13:57:00,
2013-04-07 07:12:00,48.0,47.7,29.96,WSW,247,0.0,-999.0,99,-99.99,,,0.02,Acu-Link.com,2013-04-07 14:12:00,
2013-04-07 07:28:00,48.2,47.9,29.97,NE,45,0.0,-999.0,99,-99.99,,,0.03,Acu-Link.com,2013-04-07 14:28:00,
2013-04-07 07:43:00,48.4,48.1,29.97,NNW,337,2.7,-999.0,99,-99.99,,,0.03,Acu-Link.com,2013-04-07 14:43:00,
2013-04-07 07:58:00,48.6,48.3,29.96,NE,45,0.0,-999.0,99,-99.99,,,0.04,Acu-Link.com,2013-04-07 14:58:00,
2013-04-07 08:13:00,48.6,48.3,29.96,NNE,22,0.0,-999.0,99,-99.99,,,0.04,Acu-Link.com,2013-04-07 15:13:00,
2013-04-07 08:28:00,49.1,48.8,29.95,SSW,202,0.0,-999.0,99,-99.99,,,0.04,Acu-Link.com,2013-04-07 15:28:00,
2013-04-07 09:14:00,50.2,49.9,29.95,NNE,22,0.0,-999.0,99,-99.99,,,0.05,Acu-Link.com,2013-04-07 16:14:00,
2013-04-07 09:30:00,50.9,50.6,29.95,NE,45,0.0,-999.0,99,-99.99,,,0.05,Acu-Link.com,2013-04-07 16:30:00,
2013-04-07 09:45:00,50.9,50.6,29.96,SSW,202,4.7,-999.0,99,-99.99,,,0.05,Acu-Link.com,2013-04-07 16:45:00,
2013-04-07 10:15:00,51.6,51.3,29.96,SSW,202,6.8,-999.0,99,-99.99,,,0.06,Acu-Link.com,2013-04-07 17:15:00,
2013-04-07 10:30:00,51.8,51.5,29.96,SW,225,7.8,-999.0,99,-99.99,,,0.06,Acu-Link.com,2013-04-07 17:30:00,
2013-04-07 10:46:00,51.4,51.1,29.96,SSE,157,5.3,-999.0,99,-99.99,,,0.06,Acu-Link.com,2013-04-07 17:46:00,
2013-04-07 11:01:00,51.6,51.3,29.96,West,270,5.8,-999.0,99,-99.99,,,0.07,Acu-Link.com,2013-04-07 18:01:00,
2013-04-07 11:31:00,52.5,51.7,29.95,West,270,5.8,-999.0,97,-99.99,,,0.07,Acu-Link.com,2013-04-07 18:31:00,
2013-04-07 12:02:00,56.5,53.0,29.95,WNW,292,7.3,-999.0,88,-99.99,,,0.07,Acu-Link.com,2013-04-07 19:02:00,
2013-04-07 12:17:00,58.1,52.6,29.94,SSW,202,6.8,-999.0,82,-99.99,,,0.07,Acu-Link.com,2013-04-07 19:17:00,
2013-04-07 12:32:00,58.5,52.0,29.93,West,270,6.3,-999.0,79,-99.99,,,0.07,Acu-Link.com,2013-04-07 19:32:00,
2013-04-07 12:48:00,60.3,52.3,29.92,West,270,6.3,-999.0,75,-99.99,,,0.07,Acu-Link.com,2013-04-07 19:48:00,
2013-04-07 13:03:00,56.8,50.7,29.91,West,270,11.9,-999.0,80,-99.99,,,0.07,Acu-Link.com,2013-04-07 20:03:00,
2013-04-07 13:18:00,56.1,50.7,29.90,West,270,10.9,-999.0,82,-99.99,,,0.07,Acu-Link.com,2013-04-07 20:18:00,
2013-04-07 13:33:00,57.4,51.9,29.90,WNW,292,14.5,-999.0,82,-99.99,,,0.07,Acu-Link.com,2013-04-07 20:33:00,
2013-04-07 13:48:00,58.5,52.0,29.89,WNW,292,10.4,-999.0,79,-99.99,,,0.07,Acu-Link.com,2013-04-07 20:48:00,
2013-04-07 14:04:00,55.9,50.2,29.87,SSE,157,18.6,-999.0,81,-99.99,,,0.08,Acu-Link.com,2013-04-07 21:04:00,
2013-04-07 14:34:00,57.2,50.1,29.86,West,270,14.0,-999.0,77,-99.99,,,0.08,Acu-Link.com,2013-04-07 21:34:00,
2013-04-07 15:05:00,58.3,49.3,29.84,WNW,292,16.6,-999.0,72,-99.99,,,0.08,Acu-Link.com,2013-04-07 22:05:00,
2013-04-07 15:20:00,57.2,48.6,29.84,WNW,292,11.9,-999.0,73,-99.99,,,0.08,Acu-Link.com,2013-04-07 22:20:00,
2013-04-07 15:35:00,58.8,49.0,29.84,West,270,17.1,-999.0,70,-99.99,,,0.08,Acu-Link.com,2013-04-07 22:35:00,
2013-04-07 15:50:00,58.1,48.4,29.84,West,270,8.9,-999.0,70,-99.99,,,0.08,Acu-Link.com,2013-04-07 22:50:00,
2013-04-07 16:05:00,58.8,48.7,29.82,SSE,157,9.4,-999.0,69,-99.99,,,0.08,Acu-Link.com,2013-04-07 23:05:00,
2013-04-07 16:21:00,56.8,47.5,29.82,WSW,247,14.5,-999.0,71,-99.99,,,0.08,Acu-Link.com,2013-04-07 23:21:00,
2013-04-07 16:51:00,56.5,46.5,29.81,ENE,67,11.9,-999.0,69,-99.99,,,0.08,Acu-Link.com,2013-04-07 23:51:00,
2013-04-07 17:06:00,54.1,45.3,29.80,SW,225,11.4,-999.0,72,-99.99,,,0.08,Acu-Link.com,2013-04-08 00:06:00,
2013-04-07 17:22:00,53.1,45.0,29.79,WSW,247,23.3,-999.0,74,-99.99,,,0.08,Acu-Link.com,2013-04-08 00:22:00,
2013-04-07 17:37:00,52.3,44.6,29.79,West,270,19.7,-999.0,75,-99.99,,,0.08,Acu-Link.com,2013-04-08 00:37:00,
2013-04-07 17:52:00,51.6,44.3,29.77,SSW,202,18.6,-999.0,76,-99.99,,,0.08,Acu-Link.com,2013-04-08 00:52:00,
2013-04-07 18:07:00,50.5,44.2,29.77,WNW,292,18.6,-999.0,79,-99.99,,,0.08,Acu-Link.com,2013-04-08 01:07:00,
2013-04-07 18:23:00,50.7,43.8,29.77,West,270,25.3,-999.0,77,-99.99,,,0.08,Acu-Link.com,2013-04-08 01:23:00,
2013-04-07 18:38:00,49.5,43.3,29.77,West,270,24.8,-999.0,79,-99.99,,,0.08,Acu-Link.com,2013-04-08 01:38:00,
2013-04-07 18:53:00,48.7,41.8,29.77,West,270,32.5,-999.0,77,-99.99,,,0.08,Acu-Link.com,2013-04-08 01:53:00,
2013-04-07 20:09:00,47.1,41.9,29.75,NE,45,22.2,-999.0,82,-99.99,,,0.08,Acu-Link.com,2013-04-08 03:09:00,
2013-04-07 21:10:00,46.0,42.9,29.73,WNW,292,20.7,-999.0,89,-99.99,,,0.08,Acu-Link.com,2013-04-08 04:10:00,
2013-04-07 21:25:00,45.3,43.7,29.72,West,270,18.1,-999.0,94,-99.99,,,0.08,Acu-Link.com,2013-04-08 04:25:00,
2013-04-07 21:40:00,45.1,44.3,29.72,West,270,9.9,-999.0,97,-99.99,,,0.08,Acu-Link.com,2013-04-08 04:40:00,
2013-04-07 21:56:00,45.0,44.5,29.71,North,0,10.9,-999.0,98,-99.99,,,0.08,Acu-Link.com,2013-04-08 04:56:00,
2013-04-07 22:26:00,45.1,44.8,29.67,West,270,10.9,-999.0,99,-99.99,,,0.08,Acu-Link.com,2013-04-08 05:26:00,
2013-04-07 22:42:00,45.5,45.2,29.66,WSW,247,13.5,-999.0,99,-99.99,,,0.08,Acu-Link.com,2013-04-08 05:42:00,
2013-04-07 22:57:00,45.9,45.6,29.66,West,270,15.0,-999.0,99,-99.99,,,0.08,Acu-Link.com,2013-04-08 05:57:00,
2013-04-07 23:12:00,46.0,45.7,29.65,West,270,27.4,-999.0,99,-99.99,,,0.08,Acu-Link.com,2013-04-08 06:12:00,
2013-04-07 23:27:00,46.2,45.4,29.65,West,270,15.0,-999.0,97,-99.99,,,0.09,Acu-Link.com,2013-04-08 06:27:00,
2013-04-07 23:42:00,45.9,45.1,29.66,NNE,22,7.8,-999.0,97,-99.99,,,0.09,Acu-Link.com,2013-04-08 06:42:00,
2013-04-07 23:58:00,45.1,43.8,29.67,ENE,67,7.3,-999.0,95,-99.99,,,0.09,Acu-Link.com,2013-04-08 06:58:00,